Погода в Имусе

Филиппины     14°25′36″N   120°56′22″E
темп.,
°C
ветер,
м/с
пор.,
м/с
влажн.,
%
обл.,
%
осадки,
мм/ч
давл.,
гПа
погр.,
м
27 февраля, сб
сб2723:00+28ююв447525 0.2 1010370
02:00+27ююв227762 0.5 1009314
05:00+26ссв127667 0.3 1009360
08:00+28св116883 0.3 1011456
11:00+30ссв02602 0.0 1011693
14:00+32ю025219 0.0 1009882
17:00+31юв445910 0.1 1008715
20:00+28вюв687035 0.9 1011427
28 февраля, вс
вс2823:00+28вюв567214 0.0 1012474
02:00+27всв23749 0.0 1011399
05:00+26всв1276100 0.0 1010371
08:00+27в237291 0.0 1013464
11:00+30вюв255911 0.0 1013928
14:00+32вюв575524 0.0 1010920
17:00+30вюв796016 0.0 1010765
20:00+28в686916 0.0 1012617
1 марта, пн
пн123:00+27в577264 0.0 1012550
02:00+27в467440 0.0 1011550
05:00+27в457799 0.0 1011599
08:00+27в467495 0.0 1014644
11:00+30вюв265814 0.0 1014973
14:00+32юв465613 0.0 1011938
17:00+30вюв796328 0.0 1011622
20:00+28вюв677160 0.1 1013407
2 марта, вт
вт223:00+27вюв677024 0.0 1014412
02:00+26в456912 0.0 1012328
05:00+26всв237113 0.0 1012347
08:00+26в236922 0.0 1014393
11:00+29вюв13570 0.0 1014689
14:00+31юв34480 0.0 1011853
17:00+31юв67540 0.0 1011503
20:00+28вюв68670 0.0 1013433
3 марта, ср
ср323:00+26вюв56720 0.0 1014415
02:00+25в46750 0.0 1013459
05:00+25в35740 0.0 1013467
08:00+26в34710 0.0 1015511
11:00+29вюв255823 0.0 1015991
14:00+31вюв575750 0.2 10121074
17:00+30вюв785836 0.0 1012962
20:00+28в687018 0.0 1014684